FW5974 Weather Reports


time (UTC)temp
C
wind
direction
speed
KPH
gust
KPH
rain 1hr
cm
rain 24hr
cm
rain mn
cm
humidity
%
barometer
mb
20260504185046 19 276 20.9 37.0 0.00 0.00 0.00 32 1082.8
20260504184129 19 231 9.7 17.7 0.00 0.00 0.00 33 1082.9
20260504182229 18 195 14.5 33.8 0.00 0.00 0.00 33 1083.3
20260504181231 18 253 11.3 24.1 0.00 0.00 0.00 33 1083.3
20260504180246 18 207 17.7 30.6 0.00 0.00 0.00 32 1083.3
20260504173245 18 206 9.7 17.7 0.00 0.00 0.00 31 1083.5
20260504173144 18 192 9.7 22.5 0.00 0.00 0.00 31 1083.5
20260504172146 18 247 9.7 19.3 0.00 0.00 0.00 32 1083.5
20260504170147 17 229 9.7 20.9 0.00 0.00 0.00 35 1083.6
20260504160428 16 195 8.0 22.5 0.00 0.00 0.00 36 1083.9
20260504140730 13 242 9.7 14.5 0.00 0.00 0.00 42 1085.2
20260504120130 10 258 6.4 14.5 0.00 0.00 0.00 54 1086.5
20260504100230 7 277 6.4 11.3 0.00 0.03 0.00 61 1086.0
20260504081329 6 251 4.8 8.0 0.00 0.03 0.00 59 1085.9
20260504045729 0 270 0.0 0.0 0.00 0.03 0.00 95 1086.0
20260504043827 -1 270 0.0 0.0 0.00 0.03 0.00 95 1086.0
20260504041830 -1 270 0.0 0.0 0.00 0.03 0.00 95 1086.0
20260504040846 -1 270 0.0 0.0 0.00 0.03 0.00 94 1085.9
20260504035939 -1 270 0.0 0.0 0.00 0.03 0.03 95 1085.7
20260504035038 -1 270 0.0 0.0 0.00 0.03 0.03 95 1085.6
20260504034137 -1 270 0.0 0.0 0.00 0.03 0.03 94 1085.7
20260504033154 -1 270 0.0 0.0 0.00 0.03 0.03 94 1085.8
20260504032138 -1 270 0.0 0.0 0.00 0.03 0.03 93 1085.7
20260504031155 -1 270 0.0 0.0 0.00 0.03 0.03 92 1085.7
20260504025238 -1 270 0.0 0.0 0.00 0.03 0.03 92 1085.6
20260504024257 0 270 0.0 0.0 0.00 0.03 0.03 90 1085.8
20260504023337 0 270 0.0 0.0 0.00 0.03 0.03 90 1085.7
20260504021354 0 270 0.0 0.0 0.00 0.03 0.03 88 1085.6
20260504020454 0 270 0.0 0.0 0.00 0.03 0.03 87 1085.7
20260504015537 0 270 0.0 0.0 0.00 0.03 0.03 85 1085.6
20260504014538 0 270 0.0 0.0 0.00 0.03 0.03 85 1085.6
20260504013538 1 225 0.0 0.0 0.00 0.03 0.03 83 1085.5
20260504012557 1 225 0.0 0.0 0.00 0.03 0.03 81 1085.4
20260504011639 1 225 0.0 0.0 0.00 0.03 0.03 79 1085.3
20260504010639 2 225 0.0 0.0 0.00 0.03 0.03 78 1085.2
20260504005655 2 225 0.0 0.0 0.00 0.03 0.03 76 1085.1
20260504005540 2 225 0.0 0.0 0.00 0.03 0.03 75 1085.0
20260504003556 3 225 0.0 0.0 0.00 0.03 0.03 67 1084.8
20260504002639 4 225 0.0 0.0 0.00 0.03 0.03 63 1084.8
20260504001654 5 225 0.0 1.6 0.00 0.03 0.03 59 1084.6
20260504001558 5 163 0.0 0.0 0.00 0.03 0.03 58 1084.6
20260504000640 6 270 0.0 0.0 0.00 0.03 0.03 53 1084.6
20260503235656 6 317 3.2 4.8 0.00 0.03 0.03 50 1084.3
20260503234754 7 22 0.0 0.0 0.00 0.03 0.03 46 1084.3
20260503233839 7 255 4.8 8.0 0.00 0.03 0.03 45 1084.3
20260503232856 8 257 1.6 6.4 0.00 0.03 0.03 44 1084.1
20260503231940 8 281 4.8 12.9 0.00 0.03 0.03 43 1084.1
20260503230053 8 260 1.6 9.7 0.00 0.03 0.03 44 1084.0
20260503225055 8 263 9.7 14.5 0.00 0.05 0.03 45 1083.8
20260503224053 8 253 6.4 12.9 0.00 0.18 0.03 44 1084.1
20260503222155 8 276 9.7 12.9 0.00 0.18 0.03 44 1083.8
20260503221240 8 283 4.8 9.7 0.00 0.18 0.03 44 1083.8
20260503220255 8 285 4.8 9.7 0.00 0.18 0.03 41 1083.7
20260503215255 8 304 9.7 24.1 0.00 0.18 0.03 41 1083.5
20260503214240 8 240 6.4 11.3 0.00 0.18 0.03 40 1083.5
20260503213256 8 276 6.4 12.9 0.00 0.18 0.03 40 1083.5
20260503212253 9 268 6.4 17.7 0.00 0.18 0.03 41 1083.4
20260503211340 8 279 3.2 17.7 0.00 0.20 0.03 40 1083.3
20260503210353 8 297 3.2 6.4 0.00 0.20 0.03 39 1083.1
20260503204453 8 287 17.7 25.7 0.00 0.20 0.03 40 1082.9
20260503203456 8 285 11.3 19.3 0.00 0.23 0.03 41 1082.9
20260503202540 8 301 6.4 14.5 0.00 0.23 0.03 41 1082.9
20260503201555 8 277 11.3 19.3 0.00 0.23 0.03 42 1082.7
20260503200641 8 285 12.9 24.1 0.00 0.23 0.03 43 1082.7
20260503195737 8 276 6.4 16.1 0.00 0.23 0.03 43 1082.8
20260503194755 8 297 9.7 16.1 0.00 0.23 0.03 43 1082.9
20260503193837 9 273 12.9 30.6 0.00 0.23 0.03 42 1082.7
20260503192855 9 254 12.9 20.9 0.00 0.23 0.03 41 1082.5
20260503191953 9 264 19.3 29.0 0.00 0.23 0.03 41 1082.6
20260503191036 9 273 9.7 14.5 0.00 0.23 0.03 41 1082.5
20260503190953 9 298 12.9 20.9 0.00 0.23 0.03 42 1082.6
20260503185956 8 300 6.4 17.7 0.00 0.23 0.03 42 1082.6